WetterOnline ( http://www.wetteronline.de )

Wetter aktuell Geseke

Aktuelles Wetter: Bad Lippspringe (158m)

6-stündlich | Neueste Meldungen
Ortszeit Temperatur Wetter
Di, 21.08. 2:00 16.8° C wolkig
Mo, 20.08. 20:00 21.0° C bedeckt
Mo, 20.08. 14:00 22.3° C bedeckt
Mo, 20.08. 8:00 19.2° C bedeckt
Mo, 20.08. 2:00 16.5° C wolkig
So, 19.08. 20:00 24.8° C wolkenlos
So, 19.08. 14:00 25.2° C leicht bewölkt
So, 19.08. 8:00 15.6° C wolkig
Ortszeit Temperatur Wetter
Di, 21.08. 4:30 16.3° C bedeckt
Di, 21.08. 4:20 16.3° C bedeckt
Di, 21.08. 4:10 16.3° C bedeckt
Di, 21.08. 4:00 16.1° C bedeckt
Di, 21.08. 3:50 16.1° C bedeckt
Di, 21.08. 3:40 16.1° C bedeckt
Di, 21.08. 3:30 16.3° C bedeckt
Di, 21.08. 3:00 16.1° C bedeckt
Di, 21.08. 2:30 16.3° C bewölkt
Di, 21.08. 2:00 16.8° C wolkig
Di, 21.08. 1:30 17.7° C bedeckt
Ortszeit Relative Feuchte Sichtweite
Di, 21.08. 2:00 96% 15 km
Mo, 20.08. 20:00 76% 13 km
Mo, 20.08. 14:00 68% 10 km
Mo, 20.08. 8:00 80% 19 km
Mo, 20.08. 2:00 80% 26 km
So, 19.08. 20:00 43% 35 km
So, 19.08. 14:00 46% 24 km
So, 19.08. 8:00 82% 10 km
Ortszeit Relative Feuchte Sichtweite
Di, 21.08. 4:30 95% 28 km
Di, 21.08. 4:20 95% -
Di, 21.08. 4:10 96% -
Di, 21.08. 4:00 96% 25 km
Di, 21.08. 3:50 96% -
Di, 21.08. 3:40 96% -
Di, 21.08. 3:30 94% 30 km
Di, 21.08. 3:00 96% 30 km
Di, 21.08. 2:30 96% 22 km
Di, 21.08. 2:00 96% 15 km
Di, 21.08. 1:30 92% 21 km
Ortszeit Niederschlagsmenge Niederschlagsart
Di, 21.08. 2:00 0.3 l/m2 in 6 Std. Regen
Mo, 20.08. 20:00 0.1 l/m2 in 12 Std. Regen
Mo, 20.08. 14:00 0.1 l/m2 in 6 Std. Regen
Mo, 20.08. 8:00 0.0 l/m2 in 12 Std. -
Mo, 20.08. 2:00 0.0 l/m2 in 6 Std. -
So, 19.08. 20:00 0.0 l/m2 in 12 Std. -
So, 19.08. 14:00 0.0 l/m2 in 6 Std. -
So, 19.08. 8:00 0.0 l/m2 in 12 Std. -
Ortszeit Niederschlagsmenge Niederschlagsart
Di, 21.08. 4:30 0.0 l/m2 in 1 Std. -
Di, 21.08. 4:20 keine Meldung -
Di, 21.08. 4:10 keine Meldung -
Di, 21.08. 4:00 0.0 l/m2 in 1 Std. -
Di, 21.08. 3:50 keine Meldung -
Di, 21.08. 3:40 keine Meldung -
Di, 21.08. 3:30 0.0 l/m2 in 1 Std. -
Di, 21.08. 3:00 0.0 l/m2 in 1 Std. -
Di, 21.08. 2:30 0.0 l/m2 in 1 Std. -
Di, 21.08. 2:00 0.0 l/m2 in 1 Std. Regen
Di, 21.08. 1:30 0.0 l/m2 in 1 Std. -
Ortszeit Stärke Spitze Richtung
km/h Bft. km/h Grad Sektor
Di, 21.08. 2:00 4 1 14 130° SO
Mo, 20.08. 20:00 7 2 29 230° SW
Mo, 20.08. 14:00 14 3 29 260° W
Mo, 20.08. 8:00 11 2 22 270° W
Mo, 20.08. 2:00 4 1 22 180° S
So, 19.08. 20:00 13 3 31 290° W
So, 19.08. 14:00 11 2 25 250° W
So, 19.08. 8:00 0 0 7 - -
Ortszeit Stärke Spitze Richtung
km/h Bft. km/h Grad Sektor
Di, 21.08. 4:30 4 1 7 130° SO
Di, 21.08. 4:20 4 1 - 130° SO
Di, 21.08. 4:10 4 1 - 80° O
Di, 21.08. 4:00 4 1 7 40° NO
Di, 21.08. 3:50 4 1 - 40° NO
Di, 21.08. 3:40 2 1 - 20° N
Di, 21.08. 3:30 4 1 4 90° O
Di, 21.08. 3:00 4 1 7 130° SO
Di, 21.08. 2:30 4 1 7 120° SO
Di, 21.08. 2:00 4 1 7 130° SO
Di, 21.08. 1:30 4 1 7 110° O
Ortszeit Untergrenze Bedeckung Gattung
total tief tief mittel hoch
Di, 21.08. 2:00 1110 m 7/8 1/8 - - -
Mo, 20.08. 20:00 810 m 8/8 8/8 - - -
Mo, 20.08. 14:00 720 m 8/8 8/8 - - -
Mo, 20.08. 8:00 540 m 8/8 8/8 - - -
Mo, 20.08. 2:00 1050 m 6/8 6/8 - - -
So, 19.08. 20:00 2400 m 0/8 0/8 - - -
So, 19.08. 14:00 2100 m 4/8 2/8 - - -
So, 19.08. 8:00 - 8/8 - - - -
Ortszeit Bedeckungsgrad in Achtel und Wolkenuntergrenze
Di, 21.08. 4:30 7(1140m) 8(1800m)
Di, 21.08. 4:20 7(1140m) 8(1800m)
Di, 21.08. 4:10 6(1140m) 8(1800m)
Di, 21.08. 4:00 4(1110m) 8(1800m)
Di, 21.08. 3:50 4(1110m) 8(1800m)
Di, 21.08. 3:40 4(1110m) 8(1800m)
Di, 21.08. 3:30 7(1200m) 8(1800m) 8(1800m)
Di, 21.08. 3:00 6(1230m) 8(1800m)
Di, 21.08. 2:30 7(1800m) 8(10500m)
Di, 21.08. 2:00 1(1110m) 7(10500m) 7(12000m)
Di, 21.08. 1:30 2(840m) 4(1380m) 8(1500m)
Ortszeit Luftdruck NN (hPa) Tendenz (hPa in 3 Std.)
Di, 21.08. 2:00 1021 + 0,8
Mo, 20.08. 20:00 1019 - 0,4
Mo, 20.08. 14:00 1019 0,0
Mo, 20.08. 8:00 1018 + 0,7
Mo, 20.08. 2:00 1018 + 0,2
So, 19.08. 20:00 1017 - 0,5
So, 19.08. 14:00 1020 - 1,8
So, 19.08. 8:00 1022 - 0,3
Ortszeit Luftdruck NN (hPa) Tendenz (hPa in 3 Std.)
Di, 21.08. 4:30 1021 + 0,1
Di, 21.08. 4:20 1021 keine Meldung
Di, 21.08. 4:10 1021 keine Meldung
Di, 21.08. 4:00 1021 + 0,3
Di, 21.08. 3:50 1021 keine Meldung
Di, 21.08. 3:40 1021 keine Meldung
Di, 21.08. 3:30 1021 + 0,4
Di, 21.08. 3:00 1021 + 0,4
Di, 21.08. 2:30 1021 + 0,6
Di, 21.08. 2:00 1021 + 0,8
Di, 21.08. 1:30 1021 + 0,8
Ortszeit Schneehöhe (cm)
Di, 21.08. 2:00 -
Mo, 20.08. 20:00 -
Mo, 20.08. 14:00 -
Mo, 20.08. 8:00 -
Mo, 20.08. 2:00 -
So, 19.08. 20:00 -
So, 19.08. 14:00 -
So, 19.08. 8:00 -
Ortszeit Schneehöhe (cm)
Di, 21.08. 4:30 -
Di, 21.08. 4:20 -
Di, 21.08. 4:10 -
Di, 21.08. 4:00 -
Di, 21.08. 3:50 -
Di, 21.08. 3:40 -
Di, 21.08. 3:30 -
Di, 21.08. 3:00 -
Di, 21.08. 2:30 -
Di, 21.08. 2:00 -
Di, 21.08. 1:30 -
Link zu dieser Seite / Seite empfehlen

Das Wetter in ...